CAPE
185 1141 1922 1310 920 713 366 75 0 0 0 0 2 81 52 41 20 6 12 0 0 0 0 0 18 72 33 44 70 34 10 1 0 0 0 0 0 0 0 0 1 6 0
516 1397 2237 1839 1280 737 415 39 0 0 0 0 0 28 46 54 29 28 22 0 0 0 0 0 0 6 46 57 48 48 20 2 0 0 0 0 0 0 0 0 9 3 0
870 1554 1527 2018 1794 1130 431 66 25 0 0 0 2 27 77 65 39 32 8 0 0 0 0 0 0 2 1 2 2 0 0 0 0 0 0 0 0 0 0 0 0 5 0
766 1334 1358 2118 1709 1142 504 158 52 1 0 1 30 28 4 17 16 10 0 0 0 0 0 0 0 0 0 0 0 0 0 0 0 0 0 0 0 0 0 0 11 13 39
726 1167 1686 2202 1891 1358 671 190 71 25 0 71 21 6 14 0 0 0 0 0 0 0 0 0 0 0 0 0 0 0 20 1 0 1 6 6 0 3 0 0 0 3 29
728 1248 1698 2166 1984 1545 935 185 59 14 0 11 0 0 0 0 0 0 0 0 0 0 0 0 0 1 0 0 0 0 0 0 0 14 11 15 6 0 8 11 6 0 0
641 1346 1777 2255 1987 1655 930 304 71 18 5 0 0 0 10 34 23 33 23 17 6 0 0 0 2 3 3 0 2 5 4 0 0 22 21 21 32 21 53 88 192 190 114
636 1064 1742 1930 1912 1639 1095 618 211 41 9 17 5 0 9 8 5 127 104 15 11 0 0 0 8 10 13 45 86 68 44 23 5 18 17 15 45 30 99 133 274 320 380
699 985 1395 1902 1605 1370 1192 1016 692 268 71 46 48 6 27 5 123 197 88 43 0 0 0 23 75 91 121 112 76 22 3 1 0 12 0 18 39 80 92 122 66 37 103
804 960 1080 1564 1793 1326 1098 1012 805 629 387 177 89 75 101 6 88 149 247 94 38 14 40 115 64 24 10 0 0 0 0 0 0 0 0 0 0 2 12 3 0 9 91
844 972 983 1090 1459 1234 1259 855 766 667 467 246 85 55 11 0 0 0 20 10 26 27 38 0 0 0 0 0 0 0 0 0 0 0 0 0 0 0 0 5 12 0 11
911 983 1085 1069 1284 1370 1273 1028 601 348 463 151 102 35 13 0 0 0 0 3 5 8 0 0 0 0 0 0 0 0 0 0 0 0 0 0 0 0 27 0 0 11 0
881 983 1168 1264 1260 1296 1136 1334 898 565 530 301 199 147 0 0 0 0 0 0 5 1 1 0 0 0 0 0 0 0 0 0 0 0 0 0 0 11 8 0 0 0 0
692 1000 1139 1362 1496 1466 1516 1236 1064 699 723 531 379 202 0 0 0 0 17 171 5 0 0 0 0 0 0 0 0 0 0 0 0 0 0 0 0 0 0 0 0 0 0
446 743 1204 1334 1707 1790 1740 1444 1241 975 687 634 597 327 16 0 7 23 18 0 0 0 0 0 0 0 0 0 0 0 0 0 0 0 0 0 0 0 0 0 0 0 0
301 422 877 1251 1546 1798 1813 1562 1415 1103 787 802 611 451 65 59 120 53 0 0 0 0 0 0 0 0 0 0 0 0 0 0 0 0 0 0 0 0 0 0 0 0 0
5 92 333 1002 1391 1650 1721 1879 1609 1334 982 820 699 574 184 284 136 2 0 0 0 0 0 0 0 0 0 0 0 0 0 0 0 0 0 0 0 0 0 0 0 0 0
0 0 0 110 849 1586 1648 1772 1515 1258 1092 870 1048 716 414 183 3 0 0 2 1 0 0 0 0 0 0 0 0 0 0 0 0 0 0 0 0 0 0 0 0 0 0
0 0 0 0 73 661 1613 1563 1477 1412 1091 816 888 748 301 105 74 17 13 1 0 0 0 0 0 0 0 0 0 0 0 0 0 0 0 0 0 0 0 0 0 0 0
0 0 0 0 0 57 997 1364 1683 1423 1233 1012 823 463 217 145 48 50 46 1 0 0 0 0 0 0 0 0 0 0 0 0 0 0 0 0 0 0 0 0 0 0 0
0 0 0 0 81 265 749 1605 1525 1171 1097 939 688 500 322 188 119 103 1 0 0 0 0 0 0 0 0 0 0 0 0 0 0 0 0 0 0 0 0 0 0 0 0
0 0 0 0 110 591 1181 1567 1113 1045 885 616 707 555 387 208 154 113 20 0 0 0 0 0 0 0 0 0 0 0 0 0 0 0 0 0 0 0 0 0 0 0 0
0 0 0 37 431 820 1209 814 768 798 442 819 844 573 302 308 129 51 47 0 0 0 0 0 0 0 0 0 0 0 0 0 0 0 0 0 0 0 0 0 0 0 0
0 0 14 165 637 906 925 380 361 76 513 975 811 520 374 358 245 104 55 0 0 0 0 0 0 0 0 0 0 0 0 0 0 0 0 0 0 0 0 0 0 0 0
0 0 33 254 663 806 624 136 33 67 646 856 634 442 390 349 181 117 79 0 0 0 0 0 0 0 0 0 0 0 0 0 0 0 0 0 0 0 0 0 0 0 0
0 1 124 456 459 630 255 7 4 370 545 669 612 439 362 432 114 81 0 0 0 0 0 0 0 0 0 0 0 0 0 0 0 0 0 0 0 0 0 0 0 0 0
CIN
-240 -155 -53 -85 -100 -100 -122 -173 -0 -0 -0 -0 -0 -147 -0 -0 -0 -7 -6 -0 -0 -0 -0 -0 -0 -0 -0 -0 -0 -0 -2 -0 -0 -0 -0 -0 -0 -0 -0 -0 -0 -0 -1
-196 -134 -39 -42 -60 -89 -111 -212 -0 -0 -0 -0 -0 -0 -0 -0 -0 -1 -8 -0 -0 -0 -0 -0 -0 -0 -0 -0 -0 -0 -0 -0 -0 -0 -0 -0 -0 -0 -0 -0 -6 -1 -0
-141 -93 -85 -37 -39 -56 -111 -181 -207 -0 -0 -0 -0 -0 -100 -0 -1 -15 -6 -0 -0 -0 -0 -0 -0 -0 -0 -0 -0 -0 -0 -0 -0 -0 -0 -0 -0 -0 -0 -0 -0 -3 -0
-136 -102 -85 -24 -31 -56 -110 -154 -192 -16 -0 -0 -24 -0 -3 -1 -6 -9 -0 -0 -0 -0 -0 -0 -0 -0 -0 -0 -0 -0 -0 -0 -0 -0 -0 -0 -0 -0 -0 -0 -0 -81 -381
-130 -88 -48 -19 -21 -36 -83 -148 -211 -278 -0 -158 -66 -6 -5 -0 -0 -0 -0 -0 -0 -0 -0 -0 -0 -0 -0 -0 -0 -0 -1 -1 -0 -4 -0 -0 -0 -5 -0 -0 -0 -0 -371
-124 -60 -77 -15 -11 -21 -52 -146 -237 -348 -0 -276 -0 -0 -0 -0 -0 -0 -0 -0 -0 -0 -0 -0 -0 -0 -0 -0 -0 -0 -0 -0 -0 -0 -0 -3 -0 -0 -311 -332 -379 -0 -0
-148 -61 -32 -4 -7 -14 -58 -127 -220 -325 -329 -0 -0 -0 -6 -0 -3 -3 -1 -3 -7 -0 -0 -0 -0 -0 -0 -0 -0 -91 -245 -16 -0 -59 -0 -13 -273 -277 -187 -148 -93 -90 -157
-137 -87 -44 -22 -4 -4 -34 -80 -145 -257 -327 -298 -143 -0 -40 -8 -6 -46 -39 -6 -3 -0 -0 -0 -0 -0 -134 -147 -125 -143 -155 -194 -133 -156 -112 -0 -236 -233 -139 -120 -58 -27 -7
-130 -101 -62 -14 -22 -35 -31 -40 -67 -127 -199 -223 -196 -191 -183 -117 -62 -28 -39 -76 -0 -0 -0 -116 -115 -103 -77 -82 -131 -189 -54 -63 -0 -42 -0 -271 -276 -162 -154 -152 -217 -250 -115
-120 -106 -78 -35 -12 -35 -39 -51 -65 -72 -97 -138 -166 -151 -105 -125 -85 -42 -6 -48 -94 -150 -110 -64 -108 -162 -206 -0 -0 -0 -0 -0 -0 -0 -0 -0 -0 -113 -349 -404 -0 -353 -161
-113 -97 -74 -48 -41 -58 -38 -67 -85 -81 -104 -143 -206 -236 -283 -0 -0 -0 -179 -181 -155 -141 -116 -0 -0 -0 -0 -0 -0 -0 -0 -0 -0 -0 -0 -0 -0 -0 -0 -0 -189 -0 -249
-79 -85 -68 -43 -34 -30 -38 -68 -116 -147 -101 -167 -195 -274 -196 -0 -0 -0 -0 -136 -126 -219 -0 -0 -0 -0 -0 -0 -0 -0 -0 -0 -0 -0 -0 -0 -0 -0 -0 -0 -0 -0 -0
-48 -55 -46 -26 -18 -18 -48 -42 -91 -101 -95 -109 -122 -155 -0 -0 -0 -0 -0 -0 -156 -7 -1 -0 -0 -0 -0 -0 -0 -0 -0 -0 -0 -0 -0 -0 -0 -0 -0 -0 -0 -0 -0
-39 -30 -35 -16 -3 -2 -2 -42 -68 -75 -76 -63 -91 -129 -0 -0 -0 -0 -155 -66 -22 -0 -0 -0 -0 -0 -0 -0 -0 -0 -0 -0 -0 -0 -0 -0 -0 -0 -0 -0 -0 -0 -0
-56 -44 -20 -24 -10 -4 -0 -9 -34 -41 -74 -60 -56 -99 -197 -0 -173 -161 -151 -0 -0 -0 -0 -0 -0 -0 -0 -0 -0 -0 -0 -0 -0 -0 -0 -0 -0 -0 -0 -0 -0 -0 -0
-51 -52 -31 -28 -13 -8 -2 -3 -5 -30 -40 -21 -64 -64 -180 -169 -123 -161 -0 -0 -0 -0 -0 -0 -0 -0 -0 -0 -0 -0 -0 -0 -0 -0 -0 -0 -0 -0 -0 -0 -0 -0 -0
-45 -63 -40 -28 -29 -25 -17 -0 -0 -16 -4 -22 -45 -41 -119 -79 -133 -15 -0 -0 -0 -0 -0 -0 -0 -0 -0 -0 -0 -0 -0 -0 -0 -0 -0 -0 -0 -0 -0 -0 -0 -0 -0
-0 -0 -0 -96 -33 -12 -49 -0 -8 -7 -2 -42 -4 -20 -55 -121 -71 -0 -1 -3 -1 -0 -0 -0 -0 -0 -0 -0 -0 -0 -0 -0 -0 -0 -0 -0 -0 -0 -0 -0 -0 -0 -0
-0 -0 -0 -0 -98 -44 -47 -16 -6 -0 -4 -34 -8 -15 -71 -125 -136 -193 -132 -0 -0 -0 -0 -0 -0 -0 -0 -0 -0 -0 -0 -0 -0 -0 -0 -0 -0 -0 -0 -0 -0 -0 -0
-0 -0 -0 -0 -0 -160 -35 -6 -8 -0 -0 -6 -19 -38 -67 -76 -131 -136 -131 -0 -0 -0 -0 -0 -0 -0 -0 -0 -0 -0 -0 -0 -0 -0 -0 -0 -0 -0 -0 -0 -0 -0 -0
-0 -0 -0 -0 -191 -101 -63 -13 -25 -22 -7 -24 -32 -33 -27 -40 -56 -70 -0 -0 -0 -0 -0 -0 -0 -0 -0 -0 -0 -0 -0 -0 -0 -0 -0 -0 -0 -0 -0 -0 -0 -0 -0
-0 -0 -0 -0 -130 -86 -42 -44 -50 -37 -52 -48 -35 -20 -9 -30 -19 -32 -48 -0 -0 -0 -0 -0 -0 -0 -0 -0 -0 -0 -0 -0 -0 -0 -0 -0 -0 -0 -0 -0 -0 -0 -0
-0 -0 -0 -194 -67 -77 -49 -108 -102 -91 -107 -33 -13 -7 -38 -7 -19 -31 -13 -0 -0 -0 -0 -0 -0 -0 -0 -0 -0 -0 -0 -0 -0 -0 -0 -0 -0 -0 -0 -0 -0 -0 -0
-0 -0 -172 -119 -56 -81 -62 -197 -256 -275 -151 -38 -26 -21 -11 -4 -0 -1 -3 -0 -0 -0 -0 -0 -0 -0 -0 -0 -0 -0 -0 -0 -0 -0 -0 -0 -0 -0 -0 -0 -0 -0 -0
-0 -0 -175 -46 -67 -65 -99 -273 -321 -282 -61 -27 -23 -13 -5 -1 -0 -0 -0 -0 -0 -0 -0 -0 -0 -0 -0 -0 -0 -0 -0 -0 -0 -0 -0 -0 -0 -0 -0 -0 -0 -0 -0
-0 -6 -125 -20 -96 -60 -152 -361 -255 -114 -110 -61 -18 -12 -6 -0 -6 -0 -0 -0 -0 -0 -0 -0 -0 -0 -0 -0 -0 -0 -0 -0 -0 -0 -0 -0 -0 -0 -0 -0 -0 -0 -0
Wind_Speed
26 30 25 27 26 26 25 nan nan nan nan nan nan nan nan nan nan nan nan nan nan nan nan nan nan nan nan nan nan nan nan nan nan nan nan nan nan nan nan nan nan nan nan
29 30 25 26 27 26 27 nan nan nan nan nan nan nan nan nan nan nan nan nan nan nan nan nan nan nan nan nan nan nan nan nan nan nan nan nan nan nan nan nan nan nan nan
31 32 26 25 29 27 27 nan nan nan nan nan nan nan nan nan nan nan nan nan nan nan nan nan nan nan nan nan nan nan nan nan nan nan nan nan nan nan nan nan nan nan nan
33 34 29 30 29 29 28 28 nan nan nan nan nan nan nan nan nan nan nan nan nan nan nan nan nan nan nan nan nan nan nan nan nan nan nan nan nan nan nan nan nan nan nan
30 33 34 30 28 30 29 27 nan nan nan nan nan nan nan nan nan nan nan nan nan nan nan nan nan nan nan nan nan nan nan nan nan nan nan nan nan nan nan nan nan nan nan
26 29 39 37 33 31 30 29 nan nan nan nan nan nan nan nan nan nan nan nan nan nan nan nan nan nan nan nan nan nan nan nan nan nan nan nan nan nan nan nan nan nan nan
31 36 37 39 38 37 33 30 nan nan nan nan nan nan nan nan nan nan nan nan nan nan nan nan nan nan nan nan nan nan nan nan nan nan nan nan nan nan nan nan 17 16 19
32 33 38 36 37 37 32 29 29 nan nan nan nan nan nan nan nan 16 22 nan nan nan nan nan nan nan nan nan nan nan nan nan nan nan nan nan nan nan nan 18 21 20 21
32 31 35 33 34 36 34 27 27 26 nan nan nan nan nan nan 26 29 nan nan nan nan nan nan nan nan 22 24 nan nan nan nan nan nan nan nan nan nan nan 22 nan nan 22
30 30 30 32 32 33 33 27 25 25 23 23 nan nan 29 nan nan 28 28 nan nan nan nan 25 nan nan nan nan nan nan nan nan nan nan nan nan nan nan nan nan nan nan nan
30 28 28 30 30 30 33 32 26 24 24 24 nan nan nan nan nan nan nan nan nan nan nan nan nan nan nan nan nan nan nan nan nan nan nan nan nan nan nan nan nan nan nan
31 30 29 28 31 33 30 35 29 28 26 21 22 nan nan nan nan nan nan nan nan nan nan nan nan nan nan nan nan nan nan nan nan nan nan nan nan nan nan nan nan nan nan
32 30 29 30 30 34 31 30 30 31 31 23 24 25 nan nan nan nan nan nan nan nan nan nan nan nan nan nan nan nan nan nan nan nan nan nan nan nan nan nan nan nan nan
34 33 32 32 32 33 32 32 32 29 35 28 28 28 nan nan nan nan nan 36 nan nan nan nan nan nan nan nan nan nan nan nan nan nan nan nan nan nan nan nan nan nan nan
33 34 34 34 34 30 32 33 33 28 30 33 32 33 nan nan nan nan nan nan nan nan nan nan nan nan nan nan nan nan nan nan nan nan nan nan nan nan nan nan nan nan nan
31 34 35 33 33 35 30 32 31 34 37 35 38 34 nan nan 32 nan nan nan nan nan nan nan nan nan nan nan nan nan nan nan nan nan nan nan nan nan nan nan nan nan nan
nan nan 34 32 32 34 29 32 32 31 34 38 39 36 37 36 40 nan nan nan nan nan nan nan nan nan nan nan nan nan nan nan nan nan nan nan nan nan nan nan nan nan nan
nan nan nan 37 33 35 32 32 31 33 34 39 36 37 39 39 nan nan nan nan nan nan nan nan nan nan nan nan nan nan nan nan nan nan nan nan nan nan nan nan nan nan nan
nan nan nan nan nan 33 34 33 34 36 37 37 35 39 44 41 nan nan nan nan nan nan nan nan nan nan nan nan nan nan nan nan nan nan nan nan nan nan nan nan nan nan nan
nan nan nan nan nan nan 39 37 40 41 39 39 40 41 44 41 nan nan nan nan nan nan nan nan nan nan nan nan nan nan nan nan nan nan nan nan nan nan nan nan nan nan nan
nan nan nan nan nan 37 42 47 47 47 45 42 42 45 44 42 42 44 nan nan nan nan nan nan nan nan nan nan nan nan nan nan nan nan nan nan nan nan nan nan nan nan nan
nan nan nan nan 39 39 42 46 53 54 49 47 45 48 45 42 42 43 nan nan nan nan nan nan nan nan nan nan nan nan nan nan nan nan nan nan nan nan nan nan nan nan nan
nan nan nan nan 43 42 44 50 52 54 55 48 46 48 46 45 43 nan nan nan nan nan nan nan nan nan nan nan nan nan nan nan nan nan nan nan nan nan nan nan nan nan nan
nan nan nan 37 46 46 43 46 51 nan 49 44 47 47 47 46 43 41 nan nan nan nan nan nan nan nan nan nan nan nan nan nan nan nan nan nan nan nan nan nan nan nan nan
nan nan nan 40 43 46 42 43 nan nan 46 45 48 51 47 45 45 43 nan nan nan nan nan nan nan nan nan nan nan nan nan nan nan nan nan nan nan nan nan nan nan nan nan
nan nan 50 44 39 46 41 nan nan 48 51 48 47 47 46 43 42 nan nan nan nan nan nan nan nan nan nan nan nan nan nan nan nan nan nan nan nan nan nan nan nan nan nan
Wind_Direction
278 285 289 294 289 281 278 nan nan nan nan nan nan nan nan nan nan nan nan nan nan nan nan nan nan nan nan nan nan nan nan nan nan nan nan nan nan nan nan nan nan nan nan
280 288 287 287 289 282 278 nan nan nan nan nan nan nan nan nan nan nan nan nan nan nan nan nan nan nan nan nan nan nan nan nan nan nan nan nan nan nan nan nan nan nan nan
281 287 292 287 285 283 279 nan nan nan nan nan nan nan nan nan nan nan nan nan nan nan nan nan nan nan nan nan nan nan nan nan nan nan nan nan nan nan nan nan nan nan nan
282 285 291 287 285 284 281 278 nan nan nan nan nan nan nan nan nan nan nan nan nan nan nan nan nan nan nan nan nan nan nan nan nan nan nan nan nan nan nan nan nan nan nan
280 288 287 291 288 283 282 278 nan nan nan nan nan nan nan nan nan nan nan nan nan nan nan nan nan nan nan nan nan nan nan nan nan nan nan nan nan nan nan nan nan nan nan
282 282 283 293 292 287 282 280 nan nan nan nan nan nan nan nan nan nan nan nan nan nan nan nan nan nan nan nan nan nan nan nan nan nan nan nan nan nan nan nan nan nan nan
280 279 286 293 292 289 287 285 nan nan nan nan nan nan nan nan nan nan nan nan nan nan nan nan nan nan nan nan nan nan nan nan nan nan nan nan nan nan nan nan 269 281 281
278 278 282 288 291 290 288 290 286 nan nan nan nan nan nan nan nan 234 282 nan nan nan nan nan nan nan nan nan nan nan nan nan nan nan nan nan nan nan nan 264 265 264 267
270 274 280 289 291 286 287 288 286 285 nan nan nan nan nan nan 249 262 nan nan nan nan nan nan nan nan 271 277 nan nan nan nan nan nan nan nan nan nan nan 267 nan nan 266
270 275 280 289 291 289 288 286 285 284 284 283 nan nan 270 nan nan 268 270 nan nan nan nan 249 nan nan nan nan nan nan nan nan nan nan nan nan nan nan nan nan nan nan nan
274 277 279 288 291 289 293 288 284 284 284 280 nan nan nan nan nan nan nan nan nan nan nan nan nan nan nan nan nan nan nan nan nan nan nan nan nan nan nan nan nan nan nan
278 283 281 284 290 289 281 288 289 287 287 293 294 nan nan nan nan nan nan nan nan nan nan nan nan nan nan nan nan nan nan nan nan nan nan nan nan nan nan nan nan nan nan
275 279 286 285 283 283 278 273 276 279 276 281 291 291 nan nan nan nan nan nan nan nan nan nan nan nan nan nan nan nan nan nan nan nan nan nan nan nan nan nan nan nan nan
273 279 281 283 281 282 276 268 273 273 281 279 280 286 nan nan nan nan nan 263 nan nan nan nan nan nan nan nan nan nan nan nan nan nan nan nan nan nan nan nan nan nan nan
269 272 274 278 282 279 279 274 271 274 275 283 282 289 nan nan nan nan nan nan nan nan nan nan nan nan nan nan nan nan nan nan nan nan nan nan nan nan nan nan nan nan nan
263 267 271 276 280 281 279 279 270 272 279 279 278 283 nan nan 288 nan nan nan nan nan nan nan nan nan nan nan nan nan nan nan nan nan nan nan nan nan nan nan nan nan nan
nan nan 271 276 279 281 280 277 272 270 273 274 274 285 290 283 281 nan nan nan nan nan nan nan nan nan nan nan nan nan nan nan nan nan nan nan nan nan nan nan nan nan nan
nan nan nan 264 274 281 278 273 272 272 278 273 278 278 283 285 nan nan nan nan nan nan nan nan nan nan nan nan nan nan nan nan nan nan nan nan nan nan nan nan nan nan nan
nan nan nan nan nan 273 280 275 275 272 270 276 280 281 283 286 nan nan nan nan nan nan nan nan nan nan nan nan nan nan nan nan nan nan nan nan nan nan nan nan nan nan nan
nan nan nan nan nan nan 270 271 271 268 269 269 275 278 282 282 nan nan nan nan nan nan nan nan nan nan nan nan nan nan nan nan nan nan nan nan nan nan nan nan nan nan nan
nan nan nan nan nan 272 269 271 271 271 269 270 275 281 282 280 282 275 nan nan nan nan nan nan nan nan nan nan nan nan nan nan nan nan nan nan nan nan nan nan nan nan nan
nan nan nan nan 276 272 270 271 268 269 271 271 274 274 281 280 278 271 nan nan nan nan nan nan nan nan nan nan nan nan nan nan nan nan nan nan nan nan nan nan nan nan nan
nan nan nan nan 272 272 273 267 266 267 265 268 272 273 274 273 273 nan nan nan nan nan nan nan nan nan nan nan nan nan nan nan nan nan nan nan nan nan nan nan nan nan nan
nan nan nan 262 269 268 272 271 282 nan 277 273 277 275 276 273 272 274 nan nan nan nan nan nan nan nan nan nan nan nan nan nan nan nan nan nan nan nan nan nan nan nan nan
nan nan nan 254 263 266 274 272 nan nan 273 273 275 278 275 275 272 275 nan nan nan nan nan nan nan nan nan nan nan nan nan nan nan nan nan nan nan nan nan nan nan nan nan
nan nan 259 256 261 266 269 nan nan 278 277 274 277 275 277 277 277 nan nan nan nan nan nan nan nan nan nan nan nan nan nan nan nan nan nan nan nan nan nan nan nan nan nan